This is the latest recevied weather packets stored in our database for station/object G4KVI. If no packets are shown the sender has not sent any weather packets the latest 10 day(s).
| Time | Temp. | Humidity | Pressure | Rain* | Wind** | Luminosity | Snow |
|---|---|---|---|---|---|---|---|
| 1777584603 | 15° C | 40% | 1021.5 hPa | 0 mm | - | 0 W/m² | - |
| 1777584303 | 15° C | 40% | 1021.3 hPa | 0 mm | - | 0 W/m² | - |
| 1777584003 | 14.44° C | 42% | 1021.3 hPa | 0 mm | - | 0 W/m² | - |
| 1777583703 | 13.33° C | 44% | 1021.7 hPa | 0 mm | - | 0 W/m² | - |
| 1777583403 | 13.33° C | 50% | 1021.4 hPa | 0 mm | - | 0 W/m² | - |
| 1777583103 | 13.89° C | 49% | 1021.3 hPa | 0 mm | - | 0 W/m² | - |
| 1777582803 | 13.89° C | 46% | 1021.4 hPa | 0 mm | - | 0 W/m² | - |
| 1777582503 | 14.44° C | 45% | 1021.3 hPa | 0 mm | - | 0 W/m² | - |
| 1777582203 | 15° C | 41% | 1021.4 hPa | 0 mm | - | 0 W/m² | - |
| 1777581903 | 15.56° C | 40% | 1021.5 hPa | 0 mm | - | 0 W/m² | - |
| 1777581603 | 15.56° C | 38% | 1021.2 hPa | 0 mm | - | 0 W/m² | - |
| 1777581303 | 16.11° C | 38% | 1021.1 hPa | 0 mm | - | 0 W/m² | - |
| 1777581003 | 16.11° C | 37% | 1021 hPa | 0 mm | - | 0 W/m² | - |
| 1777580703 | 16.11° C | 38% | 1021 hPa | 0 mm | - | 0 W/m² | - |
| 1777580403 | 16.11° C | 37% | 1021 hPa | 0 mm | - | 0 W/m² | - |
| 1777580103 | 16.11° C | 37% | 1021.2 hPa | 0 mm | - | 0 W/m² | - |
| 1777579803 | 16.11° C | 36% | 1020.9 hPa | 0 mm | - | 0 W/m² | - |
| 1777579503 | 16.67° C | 36% | 1020.9 hPa | 0 mm | - | 0 W/m² | - |
| 1777579203 | 16.67° C | 36% | 1020.9 hPa | 0 mm | - | 0 W/m² | - |
| 1777578904 | 16.67° C | 36% | 1020.8 hPa | 0 mm | - | 0 W/m² | - |
| 1777578603 | 16.67° C | 36% | 1020.8 hPa | 0 mm | - | 0 W/m² | - |
| 1777578303 | 16.67° C | 35% | 1020.6 hPa | 0 mm | - | 0 W/m² | - |
| 1777578003 | 17.22° C | 34% | 1020.8 hPa | 0 mm | - | 1 W/m² | - |
| 1777577703 | 17.22° C | 34% | 1020.6 hPa | 0 mm | - | 2 W/m² | - |
| 1777577403 | 17.22° C | 34% | 1020.9 hPa | 0 mm | - | 3 W/m² | - |
* Rain latest hour (hover to see other rain measurements)
** Current wind speed in m/s (hover to see current wind gust speed)